• In Hungary
  • List of Countries
  • For 7 days
  • Water Temperature
  • Satellite Maps
  • Weather Map
  • News
  • Weather Widgets
  • user-avatar
    Login

    Hourly Weather Sloboda-Kustovets'ka

    Today, 23 October, Tuesday

    Time Temperature Precipitation Wind Pressure Humidity
    00:00 +5°C° 0 mm 2 mps 738 mmHg 78%
    01:00 +4°C° 0 mm 2 mps 738 mmHg 80%
    02:00 +4°C° 0 mm 2 mps 737 mmHg 81%
    03:00 +4°C° 0 mm 2 mps 737 mmHg 82%
    04:00 +2°C° 0 mm 3 mps 736 mmHg 82%
    05:00 +2°C° 0 mm 3 mps 736 mmHg 83%
    06:00 +3°C° 0 mm 3 mps 736 mmHg 82%
    07:00 +3°C° 0 mm 4 mps 736 mmHg 81%
    08:00 +3°C° 0 mm 5 mps 735 mmHg 79%
    09:00 +5°C° 0 mm 5 mps 735 mmHg 77%
    10:00 +6°C° 0 mm 5 mps 735 mmHg 76%
    11:00 +7°C° 0 mm 5 mps 734 mmHg 74%
    12:00 +7°C° 0 mm 5 mps 733 mmHg 72%
    13:00 +7°C° 0 mm 6 mps 733 mmHg 71%
    14:00 +7°C° 0 mm 6 mps 732 mmHg 69%
    15:00 +7°C° 0 mm 5 mps 731 mmHg 68%
    16:00 +7°C° 0 mm 5 mps 730 mmHg 66%
    17:00 +6°C° 0 mm 4 mps 729 mmHg 65%
    18:00 +6°C° 0.3 mm 5 mps 728 mmHg 69%
    19:00 +6°C° 0.3 mm 5 mps 727 mmHg 74%
    20:00 +6°C° 0.3 mm 5 mps 726 mmHg 78%
    21:00 +5°C° 0.7 mm 6 mps 725 mmHg 80%
    22:00 +6°C° 0.7 mm 7 mps 724 mmHg 81%
    23:00 +6°C° 0.7 mm 7 mps 723 mmHg 83%

    Tomorrow, 24 October, Wednesday

    Time Temperature Precipitation Wind Pressure Humidity
    00:00 +6°C° 0.2 mm 7 mps 722 mmHg 81%
    01:00 +5°C° 0.2 mm 7 mps 720 mmHg 80%
    02:00 +5°C° 0.2 mm 7 mps 719 mmHg 78%
    03:00 +5°C° 0.7 mm 7 mps 718 mmHg 80%
    04:00 +5°C° 0.7 mm 7 mps 717 mmHg 81%
    05:00 +5°C° 0.7 mm 7 mps 716 mmHg 83%
    06:00 +5°C° 0.4 mm 7 mps 716 mmHg 81%
    07:00 +5°C° 0.4 mm 7 mps 715 mmHg 79%
    08:00 +5°C° 0.4 mm 8 mps 715 mmHg 78%
    09:00 +5°C° 0.4 mm 8 mps 715 mmHg 77%
    10:00 +5°C° 0.4 mm 8 mps 715 mmHg 75%
    11:00 +5°C° 0.4 mm 8 mps 715 mmHg 74%
    12:00 +5°C° 0.2 mm 8 mps 715 mmHg 70%
    13:00 +6°C° 0.2 mm 8 mps 715 mmHg 66%
    14:00 +6°C° 0.2 mm 8 mps 716 mmHg 62%
    15:00 +5°C° 0.1 mm 7 mps 716 mmHg 63%
    16:00 +4°C° 0.1 mm 7 mps 716 mmHg 65%
    17:00 +4°C° 0.1 mm 7 mps 717 mmHg 66%
    18:00 +3°C° 0.1 mm 7 mps 717 mmHg 69%
    19:00 +1°C° 0.1 mm 8 mps 716 mmHg 71%
    20:00 +1°C° 0.1 mm 9 mps 716 mmHg 74%
    21:00 +1°C° 0.5 mm 9 mps 716 mmHg 76%
    22:00 +2°C° 0.5 mm 9 mps 716 mmHg 78%
    23:00 +2°C° 0.5 mm 9 mps 717 mmHg 81%

    Day after tomorrow, 25 October, Thursday

    Time Temperature Precipitation Wind Pressure Humidity
    00:00 +2°C° 0.5 mm 9 mps 717 mmHg 81%
    01:00 +2°C° 0.5 mm 9 mps 718 mmHg 81%
    02:00 +2°C° 0.5 mm 9 mps 718 mmHg 80%
    03:00 +2°C° 0.3 mm 9 mps 719 mmHg 80%
    04:00 +2°C° 0.3 mm 9 mps 720 mmHg 80%
    05:00 +2°C° 0.3 mm 9 mps 720 mmHg 80%
    06:00 +1°C° 0.2 mm 9 mps 721 mmHg 78%
    07:00 +1°C° 0.2 mm 10 mps 722 mmHg 77%
    08:00 +1°C° 0.2 mm 10 mps 723 mmHg 75%
    09:00 +1°C° 0 mm 10 mps 724 mmHg 73%
    10:00 +1°C° 0 mm 9 mps 724 mmHg 71%
    11:00 +2°C° 0 mm 9 mps 725 mmHg 68%
    12:00 +2°C° 0 mm 9 mps 725 mmHg 68%
    13:00 +2°C° 0 mm 8 mps 725 mmHg 68%
    14:00 +2°C° 0 mm 8 mps 725 mmHg 68%
    15:00 +3°C° 0 mm 7 mps 725 mmHg 68%
    16:00 +3°C° 0 mm 6 mps 725 mmHg 69%
    17:00 +3°C° 0 mm 5 mps 725 mmHg 69%
    18:00 +3°C° 0.2 mm 4 mps 724 mmHg 72%
    19:00 +3°C° 0.2 mm 4 mps 724 mmHg 74%
    20:00 +3°C° 0.2 mm 4 mps 723 mmHg 77%
    21:00 +3°C° 1 mm 5 mps 723 mmHg 80%
    22:00 +3°C° 1 mm 5 mps 722 mmHg 82%
    23:00 +4°C° 1 mm 6 mps 722 mmHg 85%

    26 October, Friday

    Time Temperature Precipitation Wind Pressure Humidity
    00:00 +4°C° 0.2 mm 7 mps 722 mmHg 84%
    01:00 +4°C° 0.2 mm 7 mps 722 mmHg 83%
    02:00 +4°C° 0.2 mm 8 mps 722 mmHg 82%
    03:00 +4°C° 0.1 mm 8 mps 723 mmHg 81%
    04:00 +4°C° 0.1 mm 8 mps 724 mmHg 81%
    05:00 +2°C° 0.1 mm 8 mps 725 mmHg 80%
    06:00 +3°C° 0 mm 7 mps 726 mmHg 81%
    07:00 +3°C° 0 mm 6 mps 726 mmHg 82%
    08:00 +3°C° 0 mm 5 mps 727 mmHg 83%
    09:00 +4°C° 0 mm 6 mps 728 mmHg 80%
    10:00 +4°C° 0 mm 6 mps 728 mmHg 77%
    11:00 +5°C° 0 mm 6 mps 729 mmHg 75%
    12:00 +5°C° 0 mm 6 mps 729 mmHg 73%
    13:00 +7°C° 0 mm 6 mps 729 mmHg 72%
    14:00 +7°C° 0 mm 6 mps 729 mmHg 71%
    15:00 +7°C° 0 mm 5 mps 729 mmHg 73%
    16:00 +6°C° 0 mm 4 mps 730 mmHg 74%
    17:00 +7°C° 0 mm 3 mps 730 mmHg 76%
    18:00 +5°C° 0 mm 3 mps 730 mmHg 78%
    19:00 +5°C° 0 mm 3 mps 730 mmHg 80%
    20:00 +5°C° 0 mm 3 mps 730 mmHg 82%
    21:00 +4°C° 0 mm 3 mps 730 mmHg 83%
    22:00 +4°C° 0 mm 3 mps 730 mmHg 83%
    23:00 +4°C° 0 mm 3 mps 730 mmHg 84%

    27 October, Saturday

    Time Temperature Precipitation Wind Pressure Humidity
    00:00 +5°C° 0 mm 4 mps 730 mmHg 82%
    01:00 +6°C° 0 mm 5 mps 730 mmHg 79%
    02:00 +5°C° 0 mm 6 mps 729 mmHg 77%
    03:00 +5°C° 0 mm 6 mps 729 mmHg 76%
    04:00 +7°C° 0 mm 6 mps 729 mmHg 75%
    05:00 +7°C° 0 mm 6 mps 729 mmHg 74%
    06:00 +7°C° 0 mm 6 mps 729 mmHg 75%
    07:00 +7°C° 0 mm 6 mps 729 mmHg 77%
    08:00 +7°C° 0 mm 6 mps 729 mmHg 78%
    09:00 +9°C° 0 mm 6 mps 729 mmHg 74%
    10:00 +10°C° 0 mm 6 mps 729 mmHg 70%
    11:00 +13°C° 0 mm 6 mps 729 mmHg 66%
    12:00 +13°C° 0 mm 6 mps 729 mmHg 66%
    13:00 +13°C° 0 mm 5 mps 729 mmHg 66%
    14:00 +13°C° 0 mm 5 mps 729 mmHg 66%
    15:00 +12°C° 0 mm 4 mps 729 mmHg 69%
    16:00 +11°C° 0 mm 4 mps 729 mmHg 72%
    17:00 +10°C° 0 mm 3 mps 729 mmHg 75%
    18:00 +10°C° 0 mm 3 mps 730 mmHg 74%
    19:00 +9°C° 0 mm 2 mps 730 mmHg 74%
    20:00 +9°C° 0 mm 2 mps 731 mmHg 73%
    21:00 +8°C° 0.1 mm 2 mps 731 mmHg 73%
    22:00 +8°C° 0.1 mm 2 mps 732 mmHg 72%
    23:00 +8°C° 0.1 mm 2 mps 732 mmHg 72%

    28 October, Sunday

    Time Temperature Precipitation Wind Pressure Humidity
    00:00 +8°C° 0 mm 1 mps 732 mmHg 72%
    01:00 +8°C° 0 mm 1 mps 733 mmHg 71%
    02:00 +8°C° 0 mm 1 mps 733 mmHg 71%
    03:00 +8°C° 0.1 mm 1 mps 733 mmHg 72%
    04:00 +7°C° 0.1 mm 2 mps 733 mmHg 72%
    05:00 +7°C° 0.1 mm 2 mps 734 mmHg 73%
    06:00 +7°C° 0.1 mm 2 mps 734 mmHg 73%
    07:00 +5°C° 0.1 mm 3 mps 734 mmHg 72%
    08:00 +5°C° 0.1 mm 3 mps 734 mmHg 72%
    09:00 +6°C° 0.1 mm 4 mps 734 mmHg 70%
    10:00 +7°C° 0.1 mm 4 mps 734 mmHg 68%
    11:00 +7°C° 0.1 mm 4 mps 734 mmHg 66%
    12:00 +8°C° 0 mm 4 mps 734 mmHg 66%
    13:00 +10°C° 0 mm 4 mps 734 mmHg 65%
    14:00 +11°C° 0 mm 4 mps 733 mmHg 65%
    15:00 +11°C° 0 mm 4 mps 733 mmHg 68%
    16:00 +11°C° 0 mm 4 mps 733 mmHg 72%
    17:00 +10°C° 0 mm 4 mps 733 mmHg 76%
    18:00 +10°C° 0 mm 4 mps 733 mmHg 78%
    19:00 +10°C° 0 mm 4 mps 732 mmHg 79%
    20:00 +10°C° 0 mm 4 mps 732 mmHg 81%
    21:00 +11°C° 0 mm 4 mps 732 mmHg 80%
    22:00 +11°C° 0 mm 4 mps 732 mmHg 79%
    23:00 +11°C° 0 mm 4 mps 732 mmHg 78%

    29 October, Monday

    Time Temperature Precipitation Wind Pressure Humidity
    00:00 +11°C° 0 mm 4 mps 732 mmHg 79%
    01:00 +11°C° 0 mm 4 mps 731 mmHg 79%
    02:00 +11°C° 0 mm 4 mps 731 mmHg 80%
    03:00 +11°C° 0 mm 4 mps 731 mmHg 83%
    04:00 +11°C° 0 mm 4 mps 731 mmHg 87%
    05:00 +10°C° 0 mm 4 mps 731 mmHg 91%
    06:00 +11°C° 0 mm 4 mps 731 mmHg 92%
    07:00 +10°C° 0 mm 5 mps 731 mmHg 93%
    08:00 +10°C° 0 mm 5 mps 731 mmHg 95%
    09:00 +12°C° 0 mm 5 mps 731 mmHg 91%
    10:00 +13°C° 0 mm 5 mps 731 mmHg 88%
    11:00 +14°C° 0 mm 6 mps 731 mmHg 84%
    12:00 +15°C° 0 mm 6 mps 730 mmHg 77%
    13:00 +16°C° 0 mm 6 mps 730 mmHg 71%
    14:00 +17°C° 0 mm 7 mps 730 mmHg 64%
    15:00 +17°C° 0 mm 6 mps 729 mmHg 63%
    16:00 +16°C° 0 mm 5 mps 729 mmHg 62%
    17:00 +15°C° 0 mm 5 mps 729 mmHg 61%
    18:00 +15°C° 0 mm 5 mps 729 mmHg 59%
    19:00 +14°C° 0 mm 5 mps 729 mmHg 58%
    20:00 +14°C° 0 mm 5 mps 729 mmHg 56%
    21:00 +14°C° 0 mm 5 mps 729 mmHg 57%
    22:00 +14°C° 0 mm 5 mps 729 mmHg 57%
    23:00 +14°C° 0 mm 5 mps 729 mmHg 58%
    Show more